Flag Weather past 2 weeks in Ostfildern, Baden-Württemberg, Germany

Now
57 °F

Partly sunny.


Feels Like: 57 °F
Forecast: 46 / 63 °F
Wind: 2 mph from Southeast

Location: Stuttgart-Echterdingen

Current Time: Oct 30, 2014 at 4:43:13 PM

Latest Report: Oct 30, 2014 at 4:20 PM


Visibility: N/A

Pressure: 30.27 "Hg

Humidity: 82%

Dew point: 52 °F

Location of OstfildernLocation

Historic Weather in Ostfildern — Graph

°F

Ostfildern temperature yesterday

Maximum temperature yesterday: 59 °F (at 1:50 PM)
Minimum temperature yesterday: 39 °F (at 1:50 AM)
Average temperature yesterday: 47 °F

Past Weeks' High & Low Weather Summary

 TemperatureHumidityPressure
High75 °F (Oct 19, 3:20 PM)100% (Oct 17, 5:50 AM)30.33 "Hg (Oct 17, 5:50 AM)
Low36 °F (Oct 28, 12:20 AM)50% (Oct 19, 3:50 PM)29.65 "Hg (Oct 21, 6:20 PM)
Average51 °F85%30.11 "Hg
* Reported Oct 15 4:20 PM — Oct 30 3:50 PM, Ostfildern, Weather by CustomWeather, © 2014

Note: Actual official high and low records may vary slightly from our data, if they occured in-between our weather recording intervals... More about our weather records

Advertising

Ostfildern weather history for previous 24 hours

 ConditionsComfort  
Time TempWeatherWind HumidityBarometerVisibility
3:50 PM
Oct 30
57 °FPartly sunny.2 mph77%30.27 "HgN/A
3:20 PM57 °FPartly sunny.2 mph77%30.27 "HgN/A
2:50 PM57 °FPartly sunny.2 mph77%30.27 "HgN/A
2:20 PM57 °FPartly sunny.2 mph77%30.27 "HgN/A
1:50 PM57 °FPartly sunny.3 mph77%30.27 "HgN/A
1:20 PM55 °FPartly sunny.2 mph88%30.27 "HgN/A
12:50 PM55 °FPartly sunny.1 mph82%30.27 "HgN/A
12:20 PM55 °FPartly sunny.1 mph88%30.27 "HgN/A
11:50 AM54 °FPartly sunny.2 mph88%30.27 "HgN/A
11:20 AM52 °FPartly sunny.1 mph94%30.27 "Hg6 mi
10:50 AM52 °FPartly sunny.2 mph94%30.27 "Hg5 mi
10:20 AM50 °FPartly sunny.2 mph94%30.27 "Hg5 mi
9:50 AM50 °FPartly sunny.1 mph94%30.27 "Hg4 mi
9:20 AM48 °FPartly sunny.2 mph100%30.27 "Hg4 mi
8:50 AM48 °FPartly sunny.2 mph100%30.24 "Hg4 mi
8:20 AM48 °FFog.2 mph100%30.24 "Hg3 mi
7:50 AM48 °FPartly sunny.2 mph100%30.24 "Hg4 mi
7:20 AM48 °FPartly sunny.1 mph100%30.21 "Hg4 mi
6:50 AM48 °FPassing clouds.1 mph100%30.21 "Hg5 mi
6:20 AM48 °FPassing clouds.2 mph100%30.21 "Hg5 mi
5:50 AM46 °FFog.2 mph100%30.21 "Hg2 mi
5:20 AM46 °FDrizzle. Overcast.3 mph100%30.18 "Hg2 mi
4:50 AM46 °FDrizzle. Overcast.No wind100%30.18 "Hg4 mi
4:20 AM46 °FDrizzle. Fog.No wind100%30.18 "Hg2 mi
3:50 AM46 °FLight rain. Overcast.1 mph100%30.18 "Hg4 mi
3:20 AM46 °FPassing clouds.1 mph100%30.18 "Hg6 mi
2:50 AM46 °FDrizzle. Mostly cloudy.2 mph100%30.18 "Hg6 mi
2:20 AM46 °FPassing clouds.1 mph93%30.18 "Hg5 mi
1:50 AM46 °FLight rain. Overcast.2 mph93%30.15 "Hg5 mi
1:20 AM46 °FLight rain. Overcast.1 mph93%30.15 "Hg6 mi
12:50 AM46 °FOvercast.2 mph93%30.15 "Hg5 mi
12:20 AM45 °FPassing clouds.2 mph93%30.15 "Hg4 mi
11:50 PM
Oct 29
45 °FPartly cloudy.1 mph93%30.15 "Hg4 mi
11:20 PM45 °FPartly cloudy.1 mph93%30.15 "Hg4 mi
10:50 PM45 °FPartly cloudy.2 mph93%30.15 "Hg4 mi
10:20 PM45 °FPassing clouds.5 mph93%30.15 "Hg4 mi
9:50 PM45 °FClear.3 mph93%30.15 "Hg4 mi
9:20 PM45 °FPartly cloudy.2 mph93%30.12 "Hg4 mi
8:50 PM46 °FPartly cloudy.2 mph93%30.12 "Hg4 mi
8:20 PM45 °FPassing clouds.1 mph100%30.12 "Hg4 mi
7:50 PM45 °FPassing clouds.1 mph100%30.12 "Hg4 mi
7:20 PM46 °FPassing clouds.1 mph87%30.09 "Hg5 mi
6:50 PM46 °FPassing clouds.No wind93%30.09 "Hg6 mi
6:20 PM48 °FPassing clouds.1 mph94%30.09 "HgN/A
5:50 PM50 °FPassing clouds.3 mph88%30.09 "HgN/A
5:20 PM50 °FPassing clouds.2 mph88%30.07 "HgN/A
4:50 PM52 °FScattered clouds.3 mph82%30.07 "HgN/A
4:20 PM52 °FPassing clouds.7 mph88%30.07 "HgN/A
Weather by CustomWeather, © 2014

See weather overviewHow to use our weather pages